Starlink 35191

operational
NORAD ID: 65594 Int'l Des: 2025-207 Owner: SPXS Country: US Constellation: starlink
NOTLE

Starlink 35191について

説明を読み込み中...

リアルタイム位置

3D地球を読み込み中...

次回通過

高度履歴

Altitude vs Time

uPlot chart will show altitude changes over time

軌道要素

1 65594U 25207C 25354.58336806 -.02381734 00000-0 -96826-1 0 9995
2 65594 97.6045 60.5937 0001308 79.5513 202.7692 15.28536877 5885
Epoch: Dec 20, 2025 • Age: 10 hours

現在のステータス

高度 498.1 km
速度 7.62 km/s
衛星直下点 70.12°N, 51.63°W
打ち上げ日 Sep 13, 2025
運用期間 0.2 years
タイプ internet

技術仕様

分類 Payload
質量 575.00 kg
乾燥質量 530.00 kg
総質量 575.00 kg
長さ 0.30 m
直径 4.10 m
スパン 29.00 m
形状 Box + pan
製造者 SPXS
バスタイプ Starlink V2MO
フェーズステータス In Orbit
所有者/国 SPXS/US

大規模コンステレーション

Loading constellations...